FW4708 Weather Reports


Display with metric or nautical units.
time (UTC)temp
F
wind
direction
speed
MPH
gust
MPH
rain 1hr
in
rain 24hr
in
rain mn
in
humidity
%
barometer
mb
20210920031834 78 45 0.0 0.0 0.00 0.00 0.00 80 1017.7
20210920031342 79 46 0.0 0.0 0.00 0.00 0.00 80 1017.6
20210920030847 79 46 0.0 1.0 0.00 0.00 0.00 80 1017.6
20210920030345 79 46 0.0 1.0 0.00 0.00 0.00 80 1017.6
20210920025830 79 359 0.0 1.0 0.00 0.00 0.00 80 1017.4
20210920025336 79 359 0.0 1.0 0.00 0.00 0.00 80 1017.5
20210920024833 79 14 0.0 1.0 0.00 0.00 0.00 80 1017.5
20210920024340 79 20 0.0 0.0 0.00 0.00 0.00 80 1017.5
20210920023836 79 348 0.0 0.0 0.00 0.00 0.00 80 1017.4
20210920023343 79 348 0.0 0.0 0.00 0.00 0.00 79 1017.4
20210920022839 79 348 0.0 0.0 0.00 0.00 0.00 79 1017.3
20210920022346 79 348 0.0 1.0 0.00 0.00 0.00 79 1017.4
20210920021830 79 348 0.0 1.0 0.00 0.00 0.00 79 1017.3
20210920021337 79 7 0.0 1.0 0.00 0.00 0.00 79 1017.3
20210920020841 79 9 0.0 0.0 0.00 0.00 0.00 79 1017.4
20210920020348 79 10 0.0 1.0 0.00 0.00 0.00 79 1017.3
20210920015853 79 10 0.0 1.0 0.00 0.00 0.00 79 1017.5
20210920015331 79 11 0.0 2.0 0.00 0.00 0.00 79 1017.5
20210920014835 79 23 1.0 2.0 0.00 0.00 0.00 79 1017.5
20210920014342 79 329 0.0 2.0 0.00 0.00 0.00 79 1017.4
20210920013837 79 323 0.0 2.0 0.00 0.00 0.00 79 1017.3
20210920013345 79 318 1.0 2.0 0.00 0.00 0.00 79 1017.2
20210920012849 79 7 0.0 1.0 0.00 0.00 0.00 79 1017.1
20210920012327 79 321 0.0 2.0 0.00 0.00 0.00 79 1017.1
20210920011828 79 342 0.0 2.0 0.00 0.00 0.00 79 1017.1
20210920011335 79 330 1.0 2.0 0.00 0.00 0.00 79 1017.2
20210920010830 79 302 0.0 4.0 0.00 0.00 0.00 79 1017.1
20210920010336 79 310 2.0 4.0 0.00 0.00 0.00 78 1017.0
20210920005841 79 330 0.0 3.0 0.00 0.00 0.00 78 1016.9
20210920005347 79 13 1.0 3.0 0.00 0.00 0.00 78 1016.8
20210920004843 79 321 0.0 3.0 0.00 0.00 0.00 78 1016.7
20210920004330 79 341 0.0 4.0 0.00 0.00 0.00 78 1016.8
20210920003832 79 327 2.0 6.0 0.00 0.00 0.00 78 1016.7
20210920003331 79 308 3.0 6.0 0.00 0.00 0.00 77 1016.6
20210920002836 80 276 2.0 8.0 0.00 0.00 0.00 77 1016.6
20210920002342 80 1 4.0 8.0 0.00 0.00 0.00 76 1016.6
20210920001847 80 330 3.0 7.0 0.00 0.00 0.00 77 1016.6
20210920001356 81 312 3.0 7.0 0.00 0.00 0.00 76 1016.4
20210920000831 81 305 2.0 7.0 0.00 0.00 0.00 76 1016.4
20210920000334 81 359 4.0 9.0 0.00 0.00 0.00 75 1016.4
20210919235829 83 335 3.0 7.0 0.00 0.00 0.00 74 1016.3
20210919235334 83 257 0.0 1.0 0.00 0.00 0.00 73 1016.2
20210919234839 83 257 0.0 1.0 0.00 0.00 0.00 73 1016.1
20210919234347 83 256 0.0 1.0 0.00 0.00 0.00 74 1016.1
20210919233912 83 249 0.0 1.0 0.00 0.00 0.00 74 1016.1
20210919233333 83 165 0.0 3.0 0.00 0.00 0.00 73 1015.8
20210919232829 84 165 1.0 3.0 0.00 0.00 0.00 73 1015.6
20210919232336 84 139 1.0 2.0 0.00 0.00 0.00 73 1015.5
20210919231840 84 146 1.0 3.0 0.00 0.00 0.00 73 1015.7
20210919231346 84 136 0.0 3.0 0.00 0.00 0.00 72 1015.8
20210919230842 84 149 1.0 3.0 0.00 0.00 0.00 72 1015.9
20210919230338 84 212 0.0 3.0 0.00 0.00 0.00 72 1015.8
20210919225831 84 110 1.0 3.0 0.00 0.00 0.00 72 1015.8
20210919225335 84 116 1.0 4.0 0.00 0.00 0.00 72 1015.8
20210919224327 84 133 3.0 5.0 0.00 0.00 0.00 71 1015.7
20210919223832 85 134 3.0 5.0 0.00 0.00 0.00 71 1015.5
20210919223340 85 101 2.0 6.0 0.00 0.00 0.00 71 1015.4
20210919222844 85 155 3.0 6.0 0.00 0.00 0.00 71 1015.5
20210919222342 85 114 4.0 5.0 0.00 0.00 0.00 70 1015.5
20210919221826 85 141 2.0 6.0 0.00 0.00 0.00 71 1015.4
20210919221334 85 154 4.0 6.0 0.00 0.00 0.00 71 1015.4
20210919220837 85 108 2.0 7.0 0.00 0.00 0.00 71 1015.5
20210919215833 86 156 3.0 7.0 0.00 0.00 0.00 70 1015.5
20210919215330 87 125 4.0 7.0 0.00 0.00 0.00 68 1015.6
20210919214833 87 148 2.0 9.0 0.00 0.00 0.00 68 1015.4
20210919214340 87 145 6.0 9.0 0.00 0.00 0.00 68 1015.4
20210919213840 87 105 5.0 9.0 0.00 0.00 0.00 67 1015.4
20210919213336 87 143 5.0 10.0 0.00 0.00 0.00 68 1015.3
20210919212842 87 146 7.0 10.0 0.00 0.00 0.00 67 1015.3
20210919212330 87 179 5.0 10.0 0.00 0.00 0.00 69 1015.4
20210919211825 87 101 5.0 10.0 0.00 0.00 0.00 69 1015.3
20210919211330 88 144 4.0 9.0 0.00 0.00 0.00 67 1015.1
20210919210834 88 110 4.0 9.0 0.00 0.00 0.00 68 1015.2
20210919210341 88 106 4.0 10.0 0.00 0.00 0.00 69 1015.2
20210919205836 87 105 6.0 10.0 0.00 0.00 0.00 69 1015.2
20210919205343 87 129 2.0 6.0 0.00 0.00 0.00 70 1015.2
20210919204828 86 113 4.0 6.0 0.00 0.00 0.00 71 1015.2
20210919204353 85 117 3.0 7.0 0.00 0.00 0.00 73 1015.2
20210919203828 85 117 3.0 7.0 0.00 0.00 0.00 73 1015.3
20210919203335 85 107 4.0 7.0 0.00 0.00 0.00 72 1015.4
20210919202840 85 88 3.0 9.0 0.00 0.00 0.00 72 1015.5
20210919202333 85 131 4.0 9.0 0.00 0.00 0.00 72 1015.5
20210919201838 85 105 3.0 8.0 0.00 0.00 0.00 73 1015.5
20210919201344 85 162 3.0 9.0 0.00 0.00 0.00 73 1015.5
20210919200849 85 156 4.0 6.0 0.00 0.00 0.00 72 1015.6
20210919200346 84 191 0.0 2.0 0.00 0.00 0.00 73 1015.6
20210919195831 84 272 0.0 1.0 0.00 0.14 0.00 73 1015.7
20210919195329 84 271 0.0 1.0 0.00 0.14 0.00 73 1015.5
20210919194833 84 271 0.0 1.0 0.00 0.14 0.00 73 1015.6
20210919194341 84 229 0.0 1.0 0.00 0.14 0.00 73 1015.4
20210919193846 83 198 0.0 3.0 0.00 0.14 0.00 73 1015.4
20210919193352 83 266 0.0 3.0 0.00 0.14 0.00 73 1015.6
20210919192836 83 233 1.0 4.0 0.00 0.14 0.00 72 1015.7
20210919192343 84 276 2.0 4.0 0.00 0.14 0.00 70 1015.6
20210919191828 85 264 0.0 3.0 0.00 0.14 0.00 70 1015.8
20210919191335 85 148 1.0 5.0 0.00 0.14 0.00 69 1016.0
20210919190849 85 147 2.0 5.0 0.00 0.14 0.00 69 1016.0
20210919190327 85 206 1.0 8.0 0.00 0.14 0.00 68 1016.1
20210919185828 86 186 1.0 8.0 0.00 0.14 0.00 67 1016.1
20210919185336 87 195 3.0 7.0 0.00 0.14 0.00 64 1016.2
20210919184830 87 177 1.0 10.0 0.00 0.14 0.00 64 1016.3
20210919184336 88 140 6.0 13.0 0.00 0.14 0.00 66 1016.3
20210919183841 88 134 6.0 13.0 0.00 0.14 0.00 66 1016.3
20210919183349 88 97 6.0 11.0 0.00 0.14 0.00 66 1016.4
20210919182825 87 182 5.0 13.0 0.00 0.14 0.00 67 1016.4
20210919182333 87 169 8.0 13.0 0.00 0.14 0.00 66 1016.5
20210919181838 88 129 7.0 12.0 0.00 0.14 0.00 66 1016.6
20210919181334 87 119 5.0 11.0 0.00 0.14 0.00 68 1016.7
20210919180827 87 122 5.0 9.0 0.00 0.14 0.00 66 1016.7
20210919180354 87 82 4.0 7.0 0.00 0.14 0.00 65 1016.7
20210919175830 87 102 3.0 7.0 0.00 0.14 0.00 66 1016.7
20210919175337 88 96 3.0 7.0 0.00 0.14 0.00 66 1016.7
20210919174842 88 115 3.0 7.0 0.00 0.14 0.00 66 1016.8
20210919174337 87 86 2.0 6.0 0.00 0.14 0.00 66 1016.8
20210919173843 87 121 2.0 6.0 0.00 0.14 0.00 69 1017.0
20210919173330 86 110 3.0 8.0 0.00 0.14 0.00 67 1017.1
20210919172827 86 114 3.0 9.0 0.00 0.14 0.00 67 1017.2
20210919172334 87 136 2.0 9.0 0.00 0.14 0.00 66 1017.1
20210919171838 87 117 5.0 9.0 0.00 0.14 0.00 66 1017.1
20210919171345 87 100 2.0 9.0 0.00 0.14 0.00 66 1017.2
20210919170840 87 101 3.0 9.0 0.00 0.14 0.00 66 1017.3
20210919170328 87 137 3.0 8.0 0.00 0.14 0.00 66 1017.3
20210919165833 87 95 3.0 8.0 0.00 0.14 0.00 66 1017.3
20210919165331 87 82 1.0 6.0 0.00 0.14 0.00 66 1017.4
20210919164825 87 97 2.0 5.0 0.00 0.14 0.00 66 1017.6
20210919164332 87 32 2.0 5.0 0.00 0.14 0.00 66 1017.5
20210919163829 87 92 3.0 5.0 0.00 0.14 0.00 65 1017.7
20210919163335 87 131 1.0 6.0 0.00 0.14 0.00 66 1017.6
20210919162840 87 118 2.0 7.0 0.00 0.14 0.00 66 1017.7
20210919162343 87 86 4.0 6.0 0.00 0.14 0.00 66 1017.7
20210919161839 87 77 3.0 7.0 0.00 0.14 0.00 66 1017.7
20210919161335 88 101 5.0 7.0 0.00 0.14 0.00 66 1017.7
20210919160830 88 153 4.0 6.0 0.00 0.14 0.00 65 1017.8
20210919160337 88 58 0.0 5.0 0.00 0.14 0.00 65 1017.9
20210919155842 88 359 3.0 5.0 0.00 0.14 0.00 62 1017.9
20210919155329 89 340 1.0 4.0 0.00 0.14 0.00 62 1018.0
20210919154835 89 33 1.0 6.0 0.00 0.14 0.00 62 1018.0
20210919154341 89 96 2.0 6.0 0.00 0.14 0.00 61 1018.1
20210919153848 89 45 1.0 3.0 0.00 0.14 0.00 62 1018.2
20210919153355 89 27 1.0 4.0 0.00 0.14 0.00 64 1018.2
20210919152830 88 23 0.0 4.0 0.00 0.14 0.00 63 1018.2
20210919152336 88 78 2.0 4.0 0.00 0.14 0.00 64 1018.2
20210919151832 88 60 1.0 5.0 0.00 0.14 0.00 65 1018.3
20210919151340 87 120 2.0 5.0 0.00 0.14 0.00 65 1018.3
20210919150844 87 91 1.0 5.0 0.00 0.14 0.00 66 1018.3
20210919150347 87 96 2.0 5.0 0.00 0.14 0.00 65 1018.3
20210919145843 87 89 1.0 3.0 0.00 0.14 0.00 66 1018.3
20210919145331 87 88 1.0 4.0 0.00 0.14 0.00 67 1018.2
20210919144836 86 27 3.0 5.0 0.00 0.14 0.00 67 1018.2
20210919144335 86 68 2.0 5.0 0.00 0.14 0.00 68 1018.1
20210919143840 86 25 2.0 4.0 0.00 0.14 0.00 68 1018.0
20210919143325 86 32 2.0 4.0 0.00 0.14 0.00 68 1018.0
20210919142852 86 120 1.0 7.0 0.00 0.14 0.00 68 1018.0
20210919142331 86 354 2.0 7.0 0.00 0.14 0.00 68 1018.0
20210919141836 86 82 1.0 5.0 0.00 0.14 0.00 69 1017.9
20210919141353 86 340 2.0 6.0 0.00 0.14 0.00 69 1018.0
20210919140828 85 20 1.0 6.0 0.00 0.14 0.00 69 1018.1
20210919140335 85 88 2.0 5.0 0.00 0.14 0.00 68 1018.0
20210919135840 86 352 2.0 5.0 0.00 0.14 0.00 70 1018.0
20210919135339 85 28 2.0 6.0 0.00 0.14 0.00 70 1018.0
20210919134842 85 23 2.0 6.0 0.00 0.14 0.00 71 1017.9
20210919134330 85 24 2.0 5.0 0.00 0.14 0.00 71 1018.0
20210919133851 85 355 3.0 5.0 0.00 0.14 0.00 71 1017.9
20210919133329 85 350 2.0 6.0 0.00 0.14 0.00 70 1018.0
20210919132833 85 56 2.0 6.0 0.00 0.14 0.00 70 1018.0
20210919132341 85 7 2.0 4.0 0.00 0.14 0.00 72 1018.0
20210919131826 85 319 2.0 5.0 0.00 0.14 0.00 71 1017.9
20210919131332 84 338 2.0 5.0 0.00 0.14 0.00 71 1017.8
20210919130838 84 343 2.0 4.0 0.00 0.14 0.00 71 1017.8
20210919130336 84 20 1.0 6.0 0.00 0.14 0.00 73 1017.9
20210919125839 84 356 3.0 6.0 0.00 0.14 0.00 73 1017.9
20210919125346 83 24 1.0 4.0 0.00 0.14 0.00 75 1017.7
20210919124849 83 357 1.0 5.0 0.00 0.14 0.00 75 1017.7
20210919124328 83 346 2.0 5.0 0.00 0.14 0.00 75 1017.7
20210919123833 83 30 3.0 4.0 0.00 0.14 0.00 75 1017.7
20210919123340 83 14 1.0 3.0 0.00 0.14 0.00 75 1017.6
20210919122837 83 352 0.0 5.0 0.00 0.14 0.00 77 1017.6
20210919122341 83 14 1.0 5.0 0.00 0.14 0.00 77 1017.6
20210919121846 82 328 0.0 2.0 0.00 0.14 0.00 78 1017.6
20210919121353 82 5 1.0 3.0 0.00 0.14 0.00 78 1017.6
20210919120828 82 6 1.0 3.0 0.00 0.14 0.00 78 1017.6
20210919120333 82 345 0.0 0.0 0.00 0.14 0.00 79 1017.6
20210919115828 82 345 0.0 0.0 0.00 0.14 0.00 81 1017.6
20210919115336 81 345 0.0 0.0 0.00 0.14 0.00 84 1017.7
20210919114841 80 345 0.0 0.0 0.00 0.14 0.00 85 1017.7
20210919114349 78 345 0.0 0.0 0.00 0.14 0.00 86 1017.6
20210919113826 77 345 0.0 0.0 0.00 0.14 0.00 86 1017.6
20210919113334 77 345 0.0 0.0 0.00 0.14 0.00 86 1017.5
20210919112839 77 345 0.0 0.0 0.00 0.14 0.00 86 1017.5
20210919112346 76 345 0.0 0.0 0.00 0.14 0.00 87 1017.4
20210919111842 76 345 0.0 0.0 0.00 0.14 0.00 87 1017.5
20210919111330 76 344 0.0 0.0 0.00 0.14 0.00 87 1017.5
20210919110826 76 344 0.0 0.0 0.00 0.14 0.00 87 1017.5
20210919110329 76 344 0.0 0.0 0.00 0.14 0.00 87 1017.4
20210919105834 76 345 0.0 0.0 0.00 0.14 0.00 87 1017.5
20210919105349 76 345 0.0 0.0 0.00 0.14 0.00 87 1017.4
20210919104844 76 345 0.0 0.0 0.00 0.14 0.00 87 1017.4
20210919104331 76 345 0.0 0.0 0.00 0.14 0.00 87 1017.4
20210919103836 77 345 0.0 0.0 0.00 0.14 0.00 86 1017.3
20210919103335 77 345 0.0 0.0 0.00 0.14 0.00 87 1017.3
20210919102829 77 345 0.0 0.0 0.00 0.14 0.00 86 1017.3
20210919102336 77 345 0.0 0.0 0.00 0.14 0.00 86 1017.3
20210919101833 77 345 0.0 0.0 0.00 0.14 0.00 86 1017.3
20210919101341 77 345 0.0 0.0 0.00 0.14 0.00 86 1017.2
20210919100825 77 345 0.0 0.0 0.00 0.14 0.00 86 1017.2
20210919100354 76 345 0.0 0.0 0.00 0.14 0.00 86 1017.1
20210919095829 76 345 0.0 0.0 0.00 0.14 0.00 86 1017.1
20210919095337 77 345 0.0 0.0 0.00 0.14 0.00 86 1017.1
20210919094842 77 345 0.0 0.0 0.00 0.14 0.00 86 1017.1
20210919094336 77 345 0.0 0.0 0.00 0.14 0.00 86 1017.0
20210919093841 77 345 0.0 0.0 0.00 0.14 0.00 86 1017.0
20210919093328 77 345 0.0 0.0 0.00 0.14 0.00 86 1016.9
20210919092851 76 345 0.0 0.0 0.00 0.14 0.00 85 1016.8
20210919092330 77 345 0.0 0.0 0.00 0.14 0.00 85 1016.8
20210919091835 77 345 0.0 0.0 0.00 0.14 0.00 85 1016.7
20210919091344 77 345 0.0 0.0 0.00 0.14 0.00 85 1016.7
20210919090839 77 345 0.0 0.0 0.00 0.14 0.00 85 1016.7
20210919090327 77 345 0.0 0.0 0.00 0.14 0.00 84 1016.5
20210919085832 77 345 0.0 0.0 0.00 0.14 0.00 84 1016.5
20210919085331 77 345 0.0 0.0 0.00 0.14 0.00 84 1016.4
20210919084837 77 345 0.0 0.0 0.00 0.14 0.00 83 1016.4
20210919084342 77 345 0.0 0.0 0.00 0.14 0.00 82 1016.5
20210919083847 77 345 0.0 0.0 0.00 0.14 0.00 82 1016.6
20210919083346 77 345 0.0 0.0 0.00 0.14 0.00 81 1016.6
20210919082831 77 345 0.0 0.0 0.00 0.14 0.00 81 1016.6
20210919082334 78 345 0.0 0.0 0.00 0.14 0.00 81 1016.6
20210919081829 78 345 0.0 0.0 0.00 0.14 0.00 80 1016.7
20210919081337 78 345 0.0 0.0 0.00 0.14 0.00 80 1016.8
20210919080842 78 345 0.0 0.0 0.00 0.14 0.00 80 1016.8
20210919080349 78 345 0.0 0.0 0.00 0.14 0.00 80 1016.8
20210919075825 78 345 0.0 0.0 0.00 0.14 0.00 79 1016.9
20210919075333 78 345 0.0 0.0 0.00 0.14 0.00 79 1016.9
20210919074838 78 345 0.0 0.0 0.00 0.14 0.00 79 1016.7
20210919074337 78 345 0.0 0.0 0.00 0.14 0.00 79 1016.8
20210919073842 78 345 0.0 0.0 0.00 0.14 0.00 79 1016.8
20210919073330 78 345 0.0 0.0 0.00 0.14 0.00 79 1016.9
20210919072853 78 345 0.0 0.0 0.00 0.14 0.00 79 1016.7
20210919072332 78 343 0.0 0.0 0.00 0.14 0.00 79 1016.9
20210919071836 79 343 0.0 1.0 0.00 0.14 0.00 79 1016.9
20210919071344 79 343 0.0 1.0 0.00 0.14 0.00 78 1016.9
20210919070836 79 345 0.0 1.0 0.00 0.14 0.00 78 1016.9
20210919070344 79 335 0.0 1.0 0.00 0.14 0.00 79 1016.9
20210919065848 79 335 0.0 0.0 0.00 0.14 0.00 79 1017.0
20210919065326 79 337 0.0 1.0 0.00 0.14 0.00 79 1017.0
20210919064831 79 337 0.0 1.0 0.00 0.14 0.00 79 1017.1
20210919064338 79 336 0.0 1.0 0.00 0.14 0.00 79 1017.1
20210919063844 78 356 0.0 2.0 0.00 0.14 0.00 80 1017.2
20210919063331 78 335 0.0 1.0 0.00 0.14 0.00 80 1017.2
20210919062836 78 269 0.0 1.0 0.00 0.14 0.00 80 1017.3
20210919062344 78 269 0.0 0.0 0.00 0.14 0.00 81 1017.3
20210919061839 78 269 0.0 0.0 0.00 0.14 0.00 80 1017.4
20210919061326 78 269 0.0 0.0 0.00 0.14 0.00 80 1017.4
20210919060851 78 269 0.0 0.0 0.00 0.14 0.00 80 1017.4
20210919060331 78 269 0.0 0.0 0.00 0.14 0.00 80 1017.4
20210919055835 78 269 0.0 0.0 0.00 0.14 0.00 80 1017.5
20210919055344 78 269 0.0 0.0 0.00 0.14 0.00 80 1017.6
20210919054835 78 269 0.0 1.0 0.00 0.14 0.00 80 1017.6
20210919054343 78 269 0.0 1.0 0.00 0.14 0.00 80 1017.7
20210919053828 78 268 0.0 0.0 0.00 0.14 0.00 80 1017.7
20210919053326 78 268 0.0 0.0 0.00 0.14 0.00 80 1017.7
20210919052831 78 268 0.0 0.0 0.00 0.14 0.00 80 1017.9
20210919052339 78 268 0.0 0.0 0.00 0.14 0.00 80 1017.7
20210919051845 78 268 0.0 0.0 0.00 0.14 0.00 80 1017.9
20210919051343 78 269 0.0 0.0 0.00 0.14 0.00 80 1017.8
20210919050828 78 269 0.0 0.0 0.00 0.14 0.00 80 1017.9
20210919050336 78 269 0.0 0.0 0.00 0.14 0.00 80 1017.8
20210919045832 78 269 0.0 0.0 0.00 0.14 0.00 80 1017.8
20210919045339 78 269 0.0 0.0 0.00 0.14 0.00 80 1017.9
20210919044843 79 269 0.0 0.0 0.00 0.14 0.00 80 1017.9
20210919044351 78 269 0.0 0.0 0.00 0.14 0.00 80 1018.0
20210919043826 78 269 0.0 0.0 0.00 0.14 0.00 80 1017.9
20210919043334 78 269 0.0 1.0 0.00 0.14 0.00 80 1017.9
20210919042835 79 269 0.0 1.0 0.00 0.14 0.00 80 1018.0
20210919042334 79 269 0.0 0.0 0.00 0.14 0.00 79 1018.0
20210919041839 79 269 0.0 1.0 0.00 0.14 0.00 79 1018.0
20210919041326 79 269 0.0 1.0 0.00 0.14 0.00 79 1018.0
20210919040852 79 269 0.0 1.0 0.00 0.14 0.00 79 1018.0
20210919040331 79 269 0.0 1.0 0.00 0.14 0.00 79 1018.0
20210919035835 79 269 0.0 1.0 0.00 0.14 0.14 79 1018.0
20210919035351 79 269 0.0 1.0 0.00 0.14 0.14 79 1018.1
20210919034827 78 269 0.0 1.0 0.00 0.14 0.14 80 1018.1
20210919034333 78 267 0.0 0.0 0.00 0.14 0.14 80 1018.1
20210919033839 78 267 0.0 0.0 0.00 0.14 0.14 81 1018.1
20210919033337 79 267 0.0 0.0 0.00 0.14 0.14 81 1018.1
20210919032842 79 267 0.0 1.0 0.00 0.14 0.14 81 1018.2
20210919032329 79 267 0.0 0.0 0.00 0.14 0.14 81 1018.1